Regional Weather Roundup
Issued by NWS

Home | Current Version | Previous Version | Graphics & Text | Print | Product List | Glossary Off
Versions: 1 2 3 4 5 6 7 8 9 10 11 12 13 14 15 16 17 18 19 20 21 22 23 24 25 26 27 28 29 30 31 32 33 34 35 36 37 38 39 40 41 42 43 44 45 46 47 48 49 50

000
ASUS43 KLMK 251710
RWRKY
KENTUCKY REGIONAL WEATHER ROUNDUP
NATIONAL WEATHER SERVICE LOUISVILLE KY
100 PM EDT SAT OCT 25 2014

NOTE "FAIR" INDICATES FEW OR NO CLOUDS BELOW 12,000 FEET
WITH NO SIGNIFICANT WEATHER AND/OR OBSTRUCTIONS TO VISIBILITY.

KYZ001>023-026-027-061>063-070>075-251800-
WESTERN AND SOUTH CENTRAL KENTUCKY

CITY           SKY/WX    TMP DP  RH WIND       PRES   REMARKS
PADUCAH        SUNNY     74  61  63 CALM      30.03F
HENDERSON      SUNNY    N/A N/A N/A W6        30.01F
OWENSBORO      MOSUNNY   71  61  70 NW5       30.02F
HOPKINSVILLE   SUNNY     72  62  68 W7        30.04F
BOWLING GREEN  SUNNY     71  57  61 SW9       30.04F
GLASGOW        CLOUDY    64  53  68 SW7       30.06R
$$

KYZ024-025-028>034-038-045-046-053-251800-
NORTH CENTRAL KENTUCKY

CITY           SKY/WX    TMP DP  RH WIND       PRES   REMARKS
LOUISVILLE/SDF CLOUDY    67  56  67 SW14      30.00F
LOUISVILLE/LOU CLOUDY    66  56  70 W9        30.01F
FORT KNOX      CLOUDY    68  57  68 W8        30.01F
$$

KYZ035>037-039>044-047>052-055>060-089>105-251800-
NORTHEAST KENTUCKY

CITY           SKY/WX    TMP DP  RH WIND       PRES   REMARKS
LEXINGTON      CLOUDY    64  52  64 SW13      30.03F
COVINGTON      CLOUDY    66  55  67 SW8       29.97F
FRANKFORT      CLOUDY    65  54  67 SW10      30.01S
$$

KYZ054-064>069-076>088-106>120-251800-
SOUTHEAST KENTUCKY

CITY           SKY/WX    TMP DP  RH WIND       PRES   REMARKS
JACKSON        CLOUDY    63  48  58 VRB3      30.05F
LONDON         CLOUDY    64  49  57 W9        30.07F
SOMERSET       CLOUDY    61  50  67 S3        30.08F
MIDDLESBORO    SUNNY     62  48  60 CALM      30.08F
MONTICELLO     PTSUNNY   66  53  63 SW7       30.08F
$$




USA.gov is the U.S. government's official web portal to all federal, state and local government web resources and services.